EW7987 Weather Reports


time (UTC)temp
F
wind
direction
speed
knots
gust
knots
rain 1hr
in
rain 24hr
in
rain mn
in
humidity
%
barometer
mb
20260505014012 58 360 0.0 0.9 0.00 0.00 0.00 55 1005.4
20260505013512 59 360 0.0 0.9 0.00 0.00 0.00 54 1005.4
20260505013012 59 360 0.0 0.0 0.00 0.00 0.00 54 1005.4
20260505012512 59 360 0.0 0.0 0.00 0.00 0.00 54 1005.4
20260505012013 59 360 0.0 0.0 0.00 0.00 0.00 53 1005.3
20260505011517 59 360 0.0 0.0 0.00 0.00 0.00 53 1005.2
20260505011011 60 360 0.0 0.0 0.00 0.00 0.00 52 1005.1
20260505010511 60 360 0.0 0.0 0.00 0.00 0.00 52 1005.1
20260505010011 60 360 0.0 3.5 0.00 0.00 0.00 51 1004.9
20260505005514 60 360 0.0 4.3 0.00 0.00 0.00 51 1005.0
20260505005011 60 360 0.0 4.3 0.00 0.00 0.00 50 1004.8
20260505004523 60 360 0.0 2.6 0.00 0.00 0.00 50 1004.8
20260505004010 61 360 0.0 2.6 0.00 0.00 0.00 49 1004.7
20260505003514 61 360 0.0 0.9 0.00 0.00 0.00 49 1004.5
20260505003010 61 360 0.0 0.9 0.00 0.00 0.00 49 1004.4
20260505002510 61 360 0.0 0.9 0.00 0.00 0.00 49 1004.2
20260505002010 62 360 0.0 0.0 0.00 0.00 0.00 48 1004.2
20260505001510 62 360 0.0 0.9 0.00 0.00 0.00 48 1004.1
20260505001013 62 360 0.0 2.6 0.00 0.00 0.00 48 1004.0
20260505000508 62 360 0.0 7.8 0.00 0.00 0.00 47 1003.9
20260505000014 62 360 0.0 3.5 0.00 0.00 0.00 47 1003.8
20260504235509 63 360 0.0 1.7 0.00 0.00 0.00 47 1003.6
20260504235008 63 360 0.0 3.5 0.00 0.00 0.00 46 1003.5
20260504234508 63 360 0.0 8.7 0.00 0.00 0.00 46 1003.4
20260504234007 63 360 0.0 8.7 0.00 0.00 0.00 46 1003.4
20260504233507 64 360 0.0 7.0 0.00 0.00 0.00 45 1003.3
20260504233007 64 360 0.0 1.7 0.00 0.00 0.00 44 1003.2
20260504232506 65 360 0.0 3.5 0.00 0.00 0.00 45 1003.2
20260504232006 65 360 0.0 4.3 0.00 0.00 0.00 43 1003.1
20260504231519 65 360 0.9 4.3 0.00 0.00 0.00 43 1002.9
20260504231006 66 360 0.0 2.6 0.00 0.00 0.00 42 1002.8
20260504230506 66 360 0.0 5.2 0.00 0.00 0.00 41 1002.8
20260504230005 67 360 0.0 7.0 0.00 0.00 0.00 40 1002.8
20260504225511 67 360 0.0 7.8 0.00 0.00 0.00 40 1002.8
20260504225004 67 360 0.0 7.0 0.00 0.00 0.00 39 1002.6
20260504224504 68 360 0.0 7.0 0.00 0.00 0.00 39 1002.6
20260504224003 68 360 0.0 7.0 0.00 0.00 0.00 37 1002.4
20260504223503 69 360 0.0 1.7 0.00 0.00 0.00 37 1002.3
20260504223003 69 360 0.0 1.7 0.00 0.00 0.00 35 1002.3
20260504222505 70 360 0.0 5.2 0.00 0.00 0.00 35 1002.3
20260504222002 70 360 0.0 5.2 0.00 0.00 0.00 33 1002.2
20260504221501 70 360 0.0 3.5 0.00 0.00 0.00 35 1002.2
20260504221001 70 360 0.0 4.3 0.00 0.00 0.00 34 1002.3
20260504220501 70 360 0.0 7.8 0.00 0.00 0.00 33 1002.2
20260504220100 70 360 0.0 7.8 0.00 0.00 0.00 32 1002.3
20260504220001 70 360 0.0 7.8 0.00 0.00 0.00 33 1002.2
20260504215600 70 360 0.0 0.9 0.00 0.00 0.00 33 1002.3
20260504215059 70 360 0.0 0.9 0.00 0.00 0.00 32 1002.3
20260504214603 70 360 0.0 2.6 0.00 0.00 0.00 33 1002.3
20260504214058 71 360 0.0 4.3 0.00 0.00 0.00 31 1002.3
20260504213558 71 360 0.0 4.3 0.00 0.00 0.00 32 1002.4
20260504213104 71 360 0.0 7.0 0.00 0.00 0.00 31 1002.4
20260504212558 71 360 0.0 7.0 0.00 0.00 0.00 32 1002.4
20260504212059 71 360 0.0 3.5 0.00 0.00 0.00 31 1002.4
20260504211559 71 360 0.0 3.5 0.00 0.00 0.00 33 1002.4
20260504211056 71 360 0.0 9.6 0.00 0.00 0.00 32 1002.4
20260504210556 71 360 0.0 9.6 0.00 0.00 0.00 31 1002.4
20260504205558 72 360 0.0 7.8 0.00 0.00 0.00 31 1002.2
20260504205058 72 360 0.0 7.8 0.00 0.00 0.00 31 1002.2
20260504204635 72 360 0.0 5.2 0.00 0.00 0.00 31 1002.3
20260504204054 72 360 0.0 8.7 0.00 0.00 0.00 32 1002.3
20260504203554 72 360 0.0 8.7 0.00 0.00 0.00 30 1002.3
20260504203054 71 360 0.0 7.8 0.00 0.00 0.00 32 1002.3
20260504202553 71 360 0.0 12.2 0.00 0.00 0.00 30 1002.4
20260504202053 72 360 0.0 12.2 0.00 0.00 0.00 30 1002.4
20260504201552 71 360 0.0 11.3 0.00 0.00 0.00 30 1002.5
20260504201052 71 360 0.0 11.3 0.00 0.00 0.00 32 1002.3
20260504200552 71 360 0.9 11.3 0.00 0.00 0.00 31 1002.4
20260504200055 72 360 0.0 11.3 0.00 0.00 0.00 31 1002.5
20260504195551 72 360 0.0 12.2 0.00 0.00 0.00 30 1002.5
20260504195053 72 360 0.9 11.3 0.00 0.00 0.00 30 1002.5
20260504194553 72 360 0.0 7.8 0.00 0.00 0.00 31 1002.4
20260504194050 72 360 0.0 10.4 0.00 0.00 0.00 30 1002.4
20260504193552 73 360 0.0 4.3 0.00 0.00 0.00 30 1002.4
20260504193049 73 360 0.0 3.5 0.00 0.00 0.00 29 1002.5
20260504192550 73 248 0.0 7.8 0.00 0.00 0.00 29 1002.6
20260504192048 73 360 0.0 7.8 0.00 0.00 0.00 28 1002.5
20260504191548 73 360 0.0 7.8 0.00 0.00 0.00 29 1002.5
20260504191047 73 360 0.0 8.7 0.00 0.00 0.00 30 1002.7
20260504190547 73 360 0.0 8.7 0.00 0.00 0.00 28 1002.7
20260504190056 73 360 0.0 10.4 0.00 0.00 0.00 29 1002.7
20260504185545 73 360 0.0 8.7 0.00 0.00 0.00 28 1002.8
20260504185044 73 360 0.9 8.7 0.00 0.00 0.00 32 1002.8
20260504184559 72 360 0.9 10.4 0.00 0.00 0.00 29 1003.0
20260504184043 72 360 0.9 10.4 0.00 0.00 0.00 29 1002.9
20260504183544 72 360 0.9 9.6 0.00 0.00 0.00 29 1003.2
20260504183050 72 360 0.0 7.0 0.00 0.00 0.00 29 1003.2
20260504182546 72 360 0.0 13.9 0.00 0.00 0.00 30 1003.0
20260504182042 73 360 1.7 13.9 0.00 0.00 0.00 28 1003.2
20260504181541 72 360 0.9 8.7 0.00 0.00 0.00 31 1003.1
20260504181039 72 360 0.0 7.8 0.00 0.00 0.00 31 1003.2
20260504180538 71 360 0.0 16.5 0.00 0.00 0.00 31 1003.2
20260504180037 71 360 1.7 16.5 0.00 0.00 0.00 32 1003.2
20260504175537 71 360 0.0 9.6 0.00 0.00 0.00 30 1003.3
20260504175037 71 360 0.9 9.6 0.00 0.00 0.00 30 1003.2
20260504174536 71 360 0.0 11.3 0.00 0.00 0.00 32 1003.3
20260504174036 71 360 0.9 13.0 0.00 0.00 0.00 29 1003.4
20260504173536 71 360 1.7 13.0 0.00 0.00 0.00 31 1003.6
20260504173035 71 360 2.6 13.0 0.00 0.00 0.00 30 1003.6
20260504172535 71 360 0.9 12.2 0.00 0.00 0.00 33 1003.6
20260504172034 71 360 0.0 11.3 0.00 0.00 0.00 32 1003.5
20260504171541 71 360 0.9 11.3 0.00 0.00 0.00 32 1003.8
20260504171035 71 360 0.0 5.2 0.00 0.00 0.00 32 1003.6
20260504170533 70 360 0.0 9.6 0.00 0.00 0.00 32 1003.4
20260504151014 67 360 0.9 10.4 0.00 0.00 0.00 35 1005.0
20260504150515 67 360 0.0 8.7 0.00 0.00 0.00 35 1004.9
20260504141102 63 360 0.0 8.7 0.00 0.00 0.00 42 1005.3
20260504140559 62 360 0.0 8.7 0.00 0.00 0.00 45 1005.2
20260504130542 55 360 0.0 0.0 0.00 0.00 0.00 51 1006.2
20260504110516 47 360 0.0 0.9 0.00 0.00 0.00 58 1006.3
20260504100507 46 228 0.0 0.9 0.00 0.00 0.00 59 1006.3
20260504082002 46 237 0.0 0.0 0.00 0.00 0.00 59 1006.2
20260504081503 46 237 0.0 0.0 0.00 0.00 0.00 58 1006.3
20260504081002 46 237 0.0 0.0 0.00 0.00 0.00 58 1006.3
20260504080502 46 237 0.0 0.0 0.00 0.00 0.00 57 1006.2
20260504070105 46 236 0.0 0.0 0.00 0.00 0.00 58 1005.8
20260504050544 42 360 0.0 0.0 0.00 0.00 0.00 60 1006.0
20260504045543 41 360 0.0 0.0 0.00 0.00 0.00 62 1006.1
20260504045040 41 360 0.0 0.0 0.00 0.00 0.00 64 1006.2
20260504044542 41 360 0.0 0.0 0.00 0.00 0.00 63 1006.2
20260504044038 40 360 0.0 0.0 0.00 0.00 0.00 64 1006.3
20260504043537 40 360 0.0 0.0 0.00 0.00 0.00 64 1006.2
20260504043038 40 360 0.0 0.0 0.00 0.00 0.00 64 1006.2
20260504042536 40 360 0.0 0.0 0.00 0.00 0.00 64 1006.2
20260504042036 40 360 0.0 0.0 0.00 0.00 0.00 65 1006.0
20260504041534 39 360 0.0 0.9 0.00 0.00 0.00 66 1006.0
20260504041033 40 360 0.0 0.0 0.00 0.00 0.00 67 1006.0
20260504040532 40 360 0.0 0.0 0.00 0.00 0.00 68 1005.9
20260504040031 40 360 0.0 0.0 0.00 0.00 0.00 68 1005.9
20260504035533 40 360 0.0 0.0 0.00 0.00 0.00 68 1005.8
20260504035032 40 360 0.0 0.0 0.00 0.00 0.00 69 1005.8
20260504034530 40 360 0.0 0.0 0.00 0.00 0.00 68 1005.8
20260504034029 41 360 0.0 0.0 0.00 0.00 0.00 66 1005.8
20260504033532 41 360 0.0 0.0 0.00 0.00 0.00 66 1005.8
20260504033029 41 360 0.0 0.0 0.00 0.00 0.00 65 1005.7
20260504032529 41 360 0.0 0.0 0.00 0.00 0.00 64 1005.7
20260504032029 41 360 0.0 0.0 0.00 0.00 0.00 63 1005.6
20260504031530 41 360 0.0 0.0 0.00 0.00 0.00 62 1005.6
20260504031030 42 360 0.0 0.0 0.00 0.00 0.00 62 1005.6
20260504030529 42 360 0.0 0.0 0.00 0.00 0.00 61 1005.6
20260504030037 42 360 0.0 0.0 0.00 0.00 0.00 60 1005.6
20260504025530 42 360 0.0 0.0 0.00 0.00 0.00 60 1005.6
20260504025032 42 360 0.0 0.0 0.00 0.00 0.00 60 1005.6
20260504024529 42 360 0.0 0.0 0.00 0.00 0.00 60 1005.5
20260504024031 42 360 0.0 0.0 0.00 0.00 0.00 60 1005.6
20260504023529 42 360 0.0 0.0 0.00 0.00 0.00 60 1005.6
20260504023028 42 360 0.0 0.0 0.00 0.00 0.00 60 1005.6
20260504022528 42 360 0.0 0.0 0.00 0.00 0.00 60 1005.5
20260504022028 42 360 0.0 0.0 0.00 0.00 0.00 60 1005.5
20260504021531 43 360 0.0 0.0 0.00 0.00 0.00 61 1005.6
20260504021031 43 360 0.0 0.0 0.00 0.00 0.00 61 1005.5
20260504020527 43 360 0.0 0.0 0.00 0.00 0.00 61 1005.5
20260504020027 43 360 0.0 0.0 0.00 0.00 0.00 60 1005.5
20260504015527 43 360 0.0 0.0 0.00 0.00 0.00 60 1005.5
20260504015030 43 360 0.0 0.0 0.00 0.00 0.00 59 1005.4
20260504014527 43 360 0.0 0.0 0.00 0.00 0.00 60 1005.4